STARLINK-5691, 55478

Orbit data source: Space-Track

STARLINK-5691, 55478 is a payload satellite owned by SpaceX/Seattle (US) in LEO that was launched on Thu, 02 Feb 2023 UTC via an FALCON 9 launch vehicle from the Air Force Eastern Test Range (AFETR). Payload-class satellites include a variety of spacecraft equipped with specific instruments for various scientific and technological missions. These include communications satellites like Starlink; space stations such as the ISS; scientific satellites like the Hubble; Earth observation satellites from companies like Planet Labs, Umbra, and HawkEye 360; GPS; miniature CubeSats for education and research; and military/defense satellites.

Loading next visibility...
Identifier
55478, 2023-015AF
Orbit
LEO
Last TLE update
20 hours ago
Origin
Manufacturer
SpaceX/Seattle
Mission
Operational Commercial Communications
Bus & Motor
STARLINK, Unknown motor
Mass
305 kg wet, ~290 kg dry
Launch date (UTC)
2023-02-02 (2 years ago)
Launch vehicle
FALCON 9
Launch site
Air Force Eastern Test Range (AFETR)
Object type
Payload
Rocket body
Debris
Shape & HBR
Box + 1 Pan, 8.86 m
Radar Cross Section
13.562 m², Large (>1 m²)

Expand to show TLE details & history

TLE from 20 hours ago
0 STARLINK-5691
1 55478U 23015AF  25181.50977794  .00000164  00000-0  27251-4 0  9997
2 55478  43.0031 243.7667 0001436 268.3957  91.6721 15.02534007132965
Epoch: 2025-06-30T12:14Z
TLE epoch observation values (Epoch: 2025-06-30T12:14:04.814Z)
Latitude
0.00001°
Longitude
141.4281°
Altitude
558.893 km
Speed
7.584 km/s
True Right ascension
16h 15m 04s
True Declination
0° 00' 00"
Sunlit
Object was in full shadow at epoch
Visualization orbit readout
Latitude
-34.74302°
Longitude
89.09046°
Altitude
568.132 km
Speed
7.578 km/s
Apparent Right ascension
10h 45m 08s
Apparent Declination
-41° 56' 52"
Sunlit
Object is in daylight
Visualization observer readout
Local Sidereal Time
20:21:43
Azimuth
253.883° W
Elevation
-63.034°
Doppler factor
1
Orbital elements
Apogee altitude
562.006 km
Perigee altitude
560.013 km
Semi-major axis
6,939.146 km
Eccentricity
0.00014
Inclination
43.0031°
RAAN
243.7667°
Arg. of periapsis
268.3957°
True anomaly
Unknown
Mean anomaly
91.6721°
Eccentric anomaly
Unknown
Mean motion
3.75478 °/min
Orbital period
95.88 mins
BSTAR
0.000027251
Loading maneuver chart data...
Loading SW <> Apogee altitude chart data...
Loading historical data...
Loading historical data...
Loading historical data...
Loading historical data...
Loading historical data...
Loading historical data...
Loading historical data...

STARLINK-5691 Visibility forecast

Observer location: undefined°, undefined°

Span
Click to sort rows by Start time (UTC) header in descending order
Start Az.
Max El. time (UTC)
Max El. Az.
Max El.
End time (UTC)
End Az.
8 mins2025-07-01 09:15:33.299Z267.595° W2025-07-01 09:19:33.299Z355.034° N42.02°2025-07-01 09:23:33.299Z71.891° E
7 mins2025-07-01 10:57:33.299Z291.337° WNW2025-07-01 11:00:33.299Z15.381° NNE40.949°2025-07-01 11:04:33.299Z88.87° E
6 mins2025-07-01 12:38:33.299Z278.451° WNW2025-07-01 12:41:33.299Z179.792° S39.456°2025-07-01 12:44:33.299Z128.802° SE
6 mins2025-07-02 07:33:33.299Z231.033° WSW2025-07-02 07:35:33.299Z178.988° S41.74°2025-07-02 07:39:33.299Z75.499° E
|